Flag for Estonia Weather past 2 weeks in Tartu, Estonia

Now
63 °F

Mild.


Feels Like: 63 °F
Forecast: 59 / 65 °F
Wind: 5 mph from Southeast

Location: Tartu/Ulenurme

Current Time: Jul 6, 2015 at 8:30:09 AM

Latest Report: Jul 6, 2015 at 7:50 AM


Visibility: N/A

Pressure: 30.04 "Hg

Humidity: 73%

Dew point: 54 °F

Location of TartuLocation

Historic Weather in Tartu — Graph

°F

Tartu temperature yesterday

Maximum temperature yesterday: 75 °F (at 4:50 PM)
Minimum temperature yesterday: 61 °F (at 4:50 AM)
Average temperature yesterday: 67 °F

Past Weeks' High & Low Weather Summary

 TemperatureHumidityPressure
High81 °F (Jul 3, 1:50 PM)94% (Jun 22, 1:50 AM)30.36 "Hg (Jun 22, 1:50 AM)
Low43 °F (Jun 27, 3:50 AM)33% (Jul 2, 2:50 PM)29.71 "Hg (Jun 24, 3:50 AM)
Average62 °F68%30.00 "Hg
* Reported Jun 21 6:50 AM — Jul 6 6:50 AM, Tartu, Weather by CustomWeather, © 2015

Note: Actual official high and low records may vary slightly from our data, if they occured in-between our weather recording intervals... More about our weather records

Advertising

Tartu weather history for previous 24 hours

 ConditionsComfort  
Time TempWeatherWind HumidityBarometerVisibility
6:50 AM
Mon, Jul 6
59 °FFog.No wind77%30.04 "Hg3 mi
5:50 AM54 °FCool.1 mph88%30.04 "HgN/A
4:50 AM52 °FCool.No wind82%30.04 "HgN/A
3:50 AM52 °FCool.No wind88%30.04 "HgN/A
2:50 AM54 °FCool.No wind82%30.04 "HgN/A
1:50 AM57 °FCool.1 mph77%30.04 "HgN/A
12:50 AM59 °FCool.2 mph72%30.04 "HgN/A
11:50 PM
Sun, Jul 5
61 °FCool.6 mph68%30.04 "HgN/A
10:50 PM63 °FPassing clouds.2 mph68%30.01 "HgN/A
9:50 PM66 °FPassing clouds.5 mph60%30.01 "HgN/A
8:50 PM68 °FMild.8 mph56%30.01 "HgN/A
7:50 PM72 °FMild.6 mph53%30.01 "HgN/A
6:50 PM73 °FSunny.5 mph50%30.01 "Hg10 mi
5:50 PM75 °FPassing clouds.10 mph41%30.01 "HgN/A
4:50 PM75 °FPassing clouds.8 mph41%30.04 "HgN/A
3:50 PM73 °FPassing clouds.10 mph47%30.04 "HgN/A
2:50 PM73 °FPassing clouds.7 mph47%30.04 "HgN/A
1:50 PM72 °FPassing clouds.7 mph47%30.04 "HgN/A
12:50 PM70 °FPassing clouds.8 mph57%30.04 "HgN/A
11:50 AM72 °FPassing clouds.10 mph53%30.07 "HgN/A
10:50 AM70 °FPassing clouds.9 mph60%30.04 "HgN/A
9:50 AM68 °FPassing clouds.9 mph64%30.04 "HgN/A
8:50 AM66 °FPassing clouds.7 mph68%30.04 "HgN/A
Weather by CustomWeather, © 2015

See weather overviewHow to use our weather pages